{"data":{"norad_id":56915,"epoch":"2026-05-24T21:32:47.084352Z","epoch_age_seconds":83609,"freshness":"FRESH","line1":"1 56915U 23083AR  26144.89776718 -.00000416  00000+0 -56094-5 0  9993","line2":"2 56915  43.0022   0.2640 0000977 265.8799  94.1941 15.27578811163452","mean_motion":15.27578811,"eccentricity":9.77e-5,"inclination_deg":43.0022,"raan_deg":0.264,"arg_perigee_deg":265.8799,"mean_anomaly_deg":94.1941,"bstar":-5.6094e-6,"rev_number":16345,"period_min":94.266822086733,"perigee_km":482.38231810628,"apogee_km":483.72299456513,"semimajor_km":6861.1896563357,"source":"CELESTRAK","updated_at":"2026-05-25T13:38:18.204704Z"}}